Погода в Нэмуро

Япония     43°18′33″N   145°34′02″E
темп.,
°C
ветер,
м/с
пор.,
м/с
влажн.,
%
обл.,
%
осадки,
мм/ч
давл.,
гПа
погр.,
м
16 мая, вс
вс1600:00+5ю6119493 0.0 1019197
03:00+6ю61493100 0.0 1017246
06:00+7ю91789100 0.0 1017290
09:00+9ю101986100 0.0 1015357
12:00+9ю112188100 0.0 1013390
15:00+9ю102193100 0.1 1011360
18:00+9ю102295100 0.0 1010383
21:00+9ююз112298100 0.8 1008375
17 мая, пн
пн1700:00+9ю92099100 2.6 1006343
03:00+8ю81999100 10.0 1002311
06:00+8ю612100100 5.7 1000176
09:00+8ююз36100100 12.9 998124
12:00+8ссз35100100 4.8 99798
15:00+7ссз5999100 5.1 999143
18:00+7с5997100 0.0 1001131
21:00+6с4997100 0.0 1004147
18 мая, вт
вт1800:00+6ссз479574 0.0 1005106
03:00+5с4696100 0.0 100696
06:00+6ссз2293100 0.0 100950
09:00+8с33889 0.0 1009112
12:00+9ююв338667 0.0 1010235
15:00+10ююз568823 0.0 1011129
18:00+8ююз569423 0.0 101281
21:00+7юз469867 0.0 101371
19 мая, ср
ср1900:00+7юз579999 0.0 101392
03:00+7юз5799100 0.1 1014105
06:00+7ююз4597100 0.1 101481
09:00+9ююз6890100 0.1 1015131
12:00+10ююз5887100 0.0 1015143
15:00+9ююз5789100 0.1 1014113
18:00+7ююз469766 0.0 101582
21:00+7ююз469978 0.0 101682
20 мая, чт
чт2000:00+7ююз459870 0.0 101670
03:00+7юз349854 0.0 101755
06:00+8ююз349540 0.0 101864
09:00+11ююз578833 0.1 1018138
12:00+12ююз698728 0.0 1018172
15:00+11ююз699240 0.1 1018155
18:00+8ююз6998100 0.1 1019136
21:00+8ююз5998100 0.1 1019131